Pittsfield, MA

1:04 PM EST on February 26, 2017 (GMT -0500)
Pittsfield Municipal

Weather History for KPSF - February, 2014

Change the Weather History Date:

Thursday, February 27, 2014

  Actual Average Record
Temperature  
Mean Temperature 10 °F 27 °F  
Max Temperature 21 °F 36 °F 53 °F (1931)
Min Temperature -1 °F 18 °F -10 °F (1963)
Degree Days  
Heating Degree Days 55 38  
Month to date heating degree days 1212 1118  
Since 1 July heating degree days 5491 5343  
Cooling Degree Days 0 0  
Month to date cooling degree days 0 0  
Year to date cooling degree days 0 0  
Moisture  
Dew Point 1 °F    
Average Humidity 58    
Maximum Humidity 75    
Minimum Humidity 41    
Precipitation  
Precipitation 0.06 in 0.10 in 0.89 in (1946)
Month to date precipitation 3.03 2.59  
Year to date precipitation 6.38 5.51  
Sea Level Pressure  
Sea Level Pressure 29.70 in    
Wind  
Wind Speed 11 mph (WNW)    
Max Wind Speed 30 mph    
Max Gust Speed 40 mph    
Visibility 6 miles    
Events Fog , Snow    
T = Trace of Precipitation, MM = Missing Value Source: NWS Daily Summary

Daily Weather History Graph

Daily Weather History Graph

Search for Another Location

Airport or City:

Trip Planner

Search our weather history database for the weather conditions in past years. The results will help you decide how hot, cold, wet, or windy it might be!

Date:

Astronomy

Feb. 27, 2014 Rise Set
Actual Time 6:31 AM EST 5:40 PM EST
Civil Twilight 6:03 AM EST 6:08 PM EST
Nautical Twilight 5:31 AM EST 6:41 PM EST
Astronomical Twilight 4:58 AM EST 7:13 PM EST
Moon 5:03 AM EST (2/27) 4:01 PM EST (2/27)
Length of Visible Light 12h 05m
Length of Day
11h 08m
Waning Crescent, 4% of the Moon is Illuminated
Feb 27
Waning Crescent
Mar 1
New
Mar 8
First Quarter
Mar 16
Full
Mar 23
Last Quarter

Hourly Weather History & Observations

Time (EST) Temp. Windchill Dew Point Humidity Pressure Visibility Wind Dir Wind Speed Gust Speed Precip Events Conditions
12:54 AM 3.9 °F -6.9 °F -8.0 °F 58% 29.85 in 10.0 mi WSW 5.8 mph - N/A   Overcast
1:54 AM 3.9 °F -3.4 °F -8.0 °F 58% 29.83 in 10.0 mi NNE 3.5 mph - N/A   Overcast
2:54 AM 3.0 °F -4.4 °F -6.0 °F 66% 29.80 in 10.0 mi WNW 3.5 mph - N/A   Overcast
3:54 AM 1.9 °F - -7.1 °F 66% 29.78 in 10.0 mi Calm Calm - N/A   Clear
4:54 AM -0.0 °F - -7.1 °F 72% 29.75 in 10.0 mi Calm Calm - N/A   Scattered Clouds
5:54 AM 1.0 °F - -7.1 °F 69% 29.74 in 10.0 mi Calm Calm - N/A   Clear
6:54 AM 1.0 °F - -6.0 °F 72% 29.72 in 8.0 mi Calm Calm - N/A   Mostly Cloudy
7:54 AM 3.0 °F -4.4 °F -5.1 °F 69% 29.71 in 9.0 mi NE 3.5 mph - N/A   Overcast
8:54 AM 8.1 °F -3.2 °F -4.0 °F 58% 29.69 in 10.0 mi Variable 6.9 mph - N/A   Overcast
9:54 AM 14.0 °F 0.5 °F -2.0 °F 49% 29.66 in 10.0 mi South 11.5 mph - N/A   Mostly Cloudy
10:54 AM 18.0 °F 4.2 °F 3.9 °F 54% 29.62 in 9.0 mi SW 13.8 mph 33.4 mph N/A   Overcast
11:54 AM 19.0 °F 6.1 °F 5.0 °F 54% 29.61 in 10.0 mi SW 12.7 mph 24.2 mph 0.00 in   Overcast
12:54 PM 21.0 °F 4.6 °F 1.9 °F 44% 29.58 in 10.0 mi WSW 23.0 mph 28.8 mph N/A   Mostly Cloudy
1:54 PM 19.9 °F 7.3 °F 3.9 °F 50% 29.59 in 10.0 mi West 12.7 mph 21.9 mph N/A   Overcast
2:17 PM 19.0 °F 6.1 °F 6.1 °F 57% 29.51 in 1.2 mi WNW 12.7 mph - 0.00 in Snow Light Snow
2:28 PM 19.9 °F 4.8 °F 5.0 °F 52% 29.52 in 5.0 mi WSW 18.4 mph 24.2 mph 0.03 in   Haze
2:54 PM 19.0 °F 5.6 °F 8.1 °F 62% 29.61 in 4.0 mi WSW 13.8 mph - 0.05 in   Haze
3:54 PM 19.0 °F 8.2 °F 9.0 °F 65% 29.62 in 9.0 mi SW 9.2 mph - 0.00 in   Mostly Cloudy
4:54 PM 19.9 °F 6.7 °F -0.0 °F 42% 29.62 in 10.0 mi WSW 13.8 mph - N/A   Overcast
5:35 PM 18.0 °F 1.3 °F 7.0 °F 62% 29.58 in 1.5 mi WNW 20.7 mph 32.2 mph 0.00 in Snow Light Snow
5:43 PM 17.1 °F 1.0 °F 10.9 °F 77% 29.59 in 0.5 mi WNW 18.4 mph 27.6 mph 0.00 in Snow Snow
5:49 PM 15.8 °F -2.3 °F 10.4 °F 79% 29.60 in 0.2 mi WNW 23.0 mph 35.7 mph 0.00 in Snow Heavy Snow
5:50 PM 16.0 °F -2.1 °F 10.9 °F 81% 29.69 in 0.2 mi WNW 23.0 mph 35.7 mph 0.00 in Snow Heavy Snow
5:56 PM 16.0 °F 0.6 °F 10.9 °F 81% 29.60 in 0.5 mi WNW 16.1 mph 31.1 mph 0.00 in Snow Snow
6:09 PM 16.0 °F 1.1 °F 10.0 °F 77% 29.61 in 1.2 mi WNW 15.0 mph - 0.00 in Snow Light Snow
6:12 PM 16.0 °F 1.7 °F 10.0 °F 77% 29.62 in 2.0 mi West 13.8 mph - 0.00 in Snow Light Snow
6:27 PM 16.0 °F 2.9 °F 10.9 °F 81% 29.63 in 0.8 mi WNW 11.5 mph - 0.00 in Snow Light Snow
6:34 PM 15.1 °F 0.5 °F 10.9 °F 84% 29.64 in 0.2 mi WNW 13.8 mph 20.7 mph 0.01 in Fog , Snow Heavy Snow
6:43 PM 15.1 °F -3.3 °F 10.0 °F 80% 29.65 in 0.5 mi WNW 23.0 mph 38.0 mph 0.01 in Snow Snow
6:54 PM 15.1 °F -3.7 °F 8.1 °F 74% 29.76 in 1.0 mi West 24.2 mph 28.8 mph 0.01 in Snow Light Snow
7:04 PM 12.9 °F -6.5 °F 8.1 °F 81% 29.68 in 0.5 mi WNW 24.2 mph 33.4 mph 0.00 in Snow Snow
7:36 PM 10.9 °F -6.5 °F 1.9 °F 67% 29.73 in 1.2 mi WNW 17.3 mph 34.5 mph 0.00 in   Overcast
7:45 PM 10.9 °F -5.9 °F 1.0 °F 64% 29.73 in 3.0 mi WNW 16.1 mph 28.8 mph 0.00 in Snow Light Snow
7:54 PM 10.9 °F -7.0 °F -0.0 °F 61% 29.84 in 4.0 mi WNW 18.4 mph 28.8 mph 0.00 in   Overcast
8:16 PM 10.0 °F -7.6 °F -2.0 °F 58% 29.76 in 2.0 mi WNW 17.3 mph 40.3 mph 0.00 in   Overcast
8:26 PM 10.0 °F -7.1 °F -2.9 °F 56% 29.76 in 5.0 mi WNW 16.1 mph 29.9 mph 0.00 in   Overcast
8:54 PM 9.0 °F -7.3 °F -7.1 °F 48% 29.88 in 10.0 mi NW 13.8 mph 26.5 mph 0.00 in   Mostly Cloudy
9:08 PM 8.1 °F -13.0 °F -5.1 °F 55% 29.80 in 1.8 mi WNW 24.2 mph 33.4 mph 0.00 in   Overcast
9:33 PM 7.0 °F -12.6 °F -9.0 °F 48% 29.82 in 3.0 mi WNW 19.6 mph 32.2 mph 0.00 in   Scattered Clouds
9:54 PM 6.1 °F -13.3 °F -11.0 °F 45% 29.92 in 10.0 mi WNW 18.4 mph 25.3 mph 0.00 in   Clear
10:54 PM 5.0 °F -13.6 °F -9.9 °F 50% 29.95 in 10.0 mi WNW 16.1 mph 23.0 mph N/A   Clear
11:54 PM 5.0 °F -13.0 °F -9.0 °F 52% 29.96 in 10.0 mi West 15.0 mph 25.3 mph N/A   Overcast